Location: Unspecified
(0.0000°N, 0.0000°E)
Time: 00:09:57
(UTC+00:00)

Envisat - Pass Details

Date: 25 November 2022
Orbit: 763 x 765 km, 98.2° (Epoch: 02 December)

Event Time Altitude Azimuth Distance (km) Brightness Sun altitude
Exits shadow 02:57:36 15° 77° (ENE) 1,949 5.5 -39.0°
Maximum altitude 02:59:22 18° 103° (ESE) 1,801 5.4 -38.6°
Drops below altitude 10° 03:02:45 10° 145° (SE) 2,299 6.0 -37.9°
Sets 03:05:44 0° 163° (SSE) 3,228 6.7 -37.2°
